Location: Meinert
(37.9441°N, 122.0275°W)
Time: 18:51:32
(UTC+00:00)

Cosmos 2263 - Pass Details

Date: 18 April 2024
Orbit: 831 x 864 km, 70.9° (Epoch: 23 May)

Event Time Altitude Azimuth Distance (km) Brightness Sun altitude
Rises 12:44:46 0° 336° (NNW) 3,388 7.3 -8.9°
Reaches altitude 10° 12:47:12 10° 336° (NNW) 2,453 6.6 -8.4°
Maximum altitude 12:52:51 84° 249° (WSW) 849 4.2 -7.4°
Drops below altitude 10° 12:58:29 10° 162° (SSE) 2,458 6.6 -6.3°
Sets 13:00:56 0° 161° (SSE) 3,395 7.3 -5.9°
